Regional Weather Roundup
Issued by NWS Green Bay, WI

Home | Current Version | Previous Version | Text Only | Print | Product List | Glossary On
Versions: 1 2 3 4 5 6 7 8 9 10 11 12 13 14 15 16 17 18 19 20 21 22 23 24 25 26 27 28 29 30 31 32 33 34 35 36 37 38 39 40 41 42 43 44 45 46 47 48 49 50
000
ASUS43 KGRB 181200
RWRGRB

NORTH-CENTRAL AND NORTHEAST WISCONSIN REGIONAL WEATHER ROUNDUP
NATIONAL WEATHER SERVICE GREEN BAY WI
600 AM CST WED JAN 18 2017

WIZ005-009-010>012-018-019-181300-
NORTH CENTRAL WISCONSIN

CITY           SKY/WX    TMP DP  RH WIND       PRES   REMARKS
IRONWOOD       CLOUDY    30  24  78 SW14G23   29.83S
MANITOWISH WTR NOT AVBL
ARBOR VITAE    NOT AVBL
EAGLE RIVER    NOT AVBL
LAND O LAKES   NOT AVBL
RHINELANDER    CLOUDY    29  28  96 SW13G22   29.90S FOG
PHILLIPS       CLOUDY   N/A N/A N/A SW9       29.90S
ANTIGO         NOT AVBL
TOMAHAWK       NOT AVBL
MERRILL        CLOUDY    30  30 100 CALM        N/A  FOG
$$

WIZ013-073-181300-
NORTHEAST WISCONSIN

CITY           SKY/WX    TMP DP  RH WIND       PRES   REMARKS
IRON MOUNTAIN  CLOUDY    14  10  84 CALM      29.88S FOG
MARINETTE      NOT AVBL
$$

WIZ017-030-035>037-045-181300-
CENTRAL WISCONSIN

CITY           SKY/WX    TMP DP  RH WIND       PRES   REMARKS
MEDFORD        NOT AVBL
WAUSAU         FOG       30  30 100 W7        29.97R VSB 1
MOSINEE        FOG       30  30 100 SW8       29.98S VSB 1/2
MARSHFIELD     CLOUDY    29  28  96 W10       29.97R FOG
WISC RAPIDS    FOG       31  31 100 SW12      30.00F VSB 1/2
STEVENS POINT  NOT AVBL
WAUPACA        NOT AVBL
SHAWANO        NOT AVBL
CLINTONVILLE   CLOUDY    32  32 100 SW8G16    29.99S FOG
WAUTOMA        CLOUDY    32  32 100 SW10      30.03R FOG
$$

WIZ038-039-048-051-181300-
FOX VALLEY

CITY           SKY/WX    TMP DP  RH WIND       PRES   REMARKS
NWS GREEN BAY  FOG       34  34 100 SW8       30.01R VSB 1
APPLETON       FOG       32  32 100 SW9       30.00R VSB 1/2
OSHKOSH        FOG       32  31  96 W10G16    30.02R VSB 3/4
FOND DU LAC    FOG       32  30  92 W9        30.04R VSB 1
$$

WIZ022-050-052-181300-
EAST CENTRAL WISCONSIN

CITY           SKY/WX    TMP DP  RH WIND       PRES   REMARKS
EPHRAIM        NOT AVBL
WASHINGTON ISL NOT AVBL
STURGEON BAY   FOG       31  31 100 SW10      29.98R VSB 3/4
MANITOWOC      NOT AVBL
SHEBOYGAN      CLOUDY    33  32  96 W9        30.02R FOG
$$

LMZ563-521-522-541>543-181300-
LAKESHORE

STATION/POSITION TIME  TEMP    WIND        PRES    VSBY  WAVE
                       AIR SEA DIR/SP/G                  HT/PER
                 (UTC) (F)     (DEG/KT/KT) (MB)    (MI)  (FT/S)
SHEBOYGAN LKSHOR 1100   34     250/  9/ 11 1016.5R
KEWAUNEE LKSHORE 1124   32     260/  5/ 10 1014.9
ALGOMA MARINA    1139          280/  6/  9   N/A
NORTHPORT PIER   1140   33     200/  4/  8 1014.2R
SISTER BAY LKSHO 1150   32     220/  7/  8   N/A
MENOMINEE LKSHOR 1124          210/  7/  9 1014.0
$$



USA.gov is the U.S. government's official web portal to all federal, state and local government web resources and services.